User: anonymous   Login
Location: Unspecified
(0.0000°N, 0.0000°E)
Time: 12:35:15
(UTC+00:00)
Language:

PAYLOAD E - Orbit

View from above orbital plane
View from above orbital plane
View from above satellite
View from above satellite

Ground track
Ground track

The orbit data is extracted from the following two-line orbital elements,

1 27059U 01058E   18171.75694577 +.00000008 +00000-0 -13603-4 0  9991
2 27059 082.5408 281.4345 0001781 039.8864 320.2360 12.61483509758829
Epoch (UTC): 20 June 2018 18:10:00
Eccentricity: 0.0001781
inclination: 82.5408°
perigee height: 1415 km
apogee height: 1418 km
right ascension of ascending node: 281.4345°
argument of perigee: 39.8864°
revolutions per day: 12.61483509
mean anomaly at epoch: 320.2360°
orbit number at epoch: 75882

The dashed part of the orbit path shows where the satellite is in the earth's shadow,  

DLR